Regional Weather Roundup
Issued by NWS Pendleton, OR

Home | Current Version | Previous Version | Text Only | Print | Product List | Glossary On
Versions: 1 2 3 4 5 6 7 8 9 10 11 12 13 14 15 16 17 18 19 20 21 22 23 24 25 26 27 28 29 30 31 32 33 34 35 36 37 38 39 40 41 42 43 44 45 46 47 48 49 50
585
ASUS46 KPDT 250210
RWRPDT
PENDLETON REGIONAL WEATHER ROUNDUP
NATIONAL WEATHER SERVICE PENDLETON OREGON
700 PM PDT WED MAY 24 2017

NOTE: FAIR INDICATES FEW OR NO CLOUDS BELOW 12,000 FEET WITH NO
SIGNIFICANT WEATHER AND/OR OBSTRUCTIONS TO VISIBILITY.

# INDICATES UNOFFICIAL STATION AND DATA

WAZ520-250310-
EAST SLOPES OF WASHINGTON CASCADES

CITY            SKY/WX      TMP DP  RH  WIND    PRES   REMARKS
#CLE ELUM HS    N/A         52  34  50  W6      29.81F
#CLE ELUM LAKE  N/A         48  34  58  CALM    29.91F
#GLENWOOD       N/A         59  40  49  S2      29.77S
#NELSON 3SW     N/A         48  36  63  CALM    30.03F
#NILE           N/A         53  36  52  W5      29.08R
#TEANAWAY 4NE   N/A         52  38  59  W3      N/A
#TROUT LAKE 1NE N/A         55  40  57  W8      29.81F
#TROUT LAKE 1E  N/A         55  39  55  NW2     29.87F
$$

WAZ521-250310-
SIMCOE HIGHLANDS

CITY            SKY/WX      TMP DP  RH  WIND    PRES   REMARKS
#BICKLETON HS   N/A         55  38  53  N20     29.79R
#CENTERVILLE 1SWN/A         56  41  57  W22     29.78S
#GOLDENDALE 1NE N/A         60  26  27  SW6     N/A
#GOLDENDALE 4W  N/A         61  14  16  W20     29.86S
#GOODNOE HILLS  N/A         60  41  49  W17G25  N/A
#LYLE 6NE       N/A         56  44  64  SW13    29.80R
#PITT 4SE       N/A         52  41  66  W16     29.84S
$$

WAZ026-250310-
KITTITAS VALLEY

CITY            SKY/WX      TMP DP  RH  WIND    PRES   REMARKS
ELLENSBURG AP   CLOUDY      56  34  43  NW28G40 29.81F
YTC-OPS AREA    SUNNY       48  31  51  N36     29.78R WCI 39
#ELLENSBURG CWU N/A         54  35  48  NW21    29.73F
#ELLENSBURG 3NE N/A         53  38  57  N9G26   27.90S
#KITTITAS 4N    N/A         53  36  52  W18     29.82S
#KITTITAS 3S    N/A         54  38  55  W17G32  29.77R
#THORP 6N       N/A         50  36  58  W22G38  29.82R
$$

WAZ027-250310-
YAKIMA VALLEY

CITY            SKY/WX      TMP DP  RH  WIND    PRES   REMARKS
SUNNYSIDE AP    MOCLDY      62  34  35  NW16G28 29.77R
YAKIMA AIRPORT  MOCLDY      64  34  33  N17G25  29.80R
YAKIMA-VAGABOND SUNNY       59  33  37  N15G26  29.78F
#DONALD 2NE     N/A         61   4  10  N12     28.64R
#GRANDVIEW      N/A         64  30  28  W3      29.76R
#MABTON         N/A         66  38  36  N15     29.76S
#MOXEE 2E       N/A         59  N/A N/A N15     29.82R
#NACHES 2SW     N/A         57  37  47  W8      29.81S
#TERRACE HTS    N/A         60  35  39  NW14G26 29.73R
#TOPPENISH      N/A         62  35  36  CALM    29.67R
#WEST VALLEY    N/A         60  35  39  N9G26   29.75S
#W YAKIMA       N/A         60  36  41  W1      29.77S
#WHITE SWAN 5E  N/A         63  39  41  NW1     29.76R
#WILEY CITY 3W  N/A         62  33  34  CALM    29.76F
$$

WAZ028-250310-
LOWER COLUMBIA BASIN...WASHINGTON

CITY            SKY/WX      TMP DP  RH  WIND    PRES   REMARKS
PASCO           CLOUDY      65  37  35  NW17G30 29.75S
PROSSER AWOS    N/A         64  34  33  NW14    29.81R
RICHLAND AWOS   CLOUDY      66  33  29  NW20G30 29.76R
#BENTON CITY    N/A         64  34  33  NW1     29.65R
#CONNELL 5N     N/A         64  34  33  W5      29.71S
#CONNELL 5NW    N/A         63  36  36  W8      29.66S
#ELTOPIA 6NW    N/A         63  41  44  NW7     28.73S
#KAHLOTUS       N/A         63  36  36  NW14    29.70S
#KENNEWICK 3S   N/A         64  36  35  SW2     29.75R
#PATERSON       N/A         67  37  33  N7      29.72S
#SAGEMOOR 2W    N/A         64  37  37  W10     29.59S
#TOUCHET 2S     N/A         64  41  43  NW5     29.71S
#WEST PASCO     N/A         67  37  33  N8      29.73R
$$

WAZ029-250310-
FOOTHILLS OF THE BLUES...WASHINGTON

CITY            SKY/WX      TMP DP  RH  WIND    PRES   REMARKS
WALLA WALLA AP  PTCLDY      65  36  34  W10     29.76S
#CLYDE 6NW      N/A         63  34  34  W7      29.70S
#DAYTON SCHOOL  N/A         63  28  26  SW3     29.78S
#LOWDEN 2SE     N/A         65  44  46  W2      29.71S
#PLEASANT VIEW 1N/A         62  32  32  W7      29.74S
#PRESCOTT       N/A         65  39  38  CALM    29.71R
#WHITMAN COLLEGEN/A         65  38  37  SW3     29.77S
#WAITSBURG 6SSE N/A         60  35  39  E2      29.76R
#WALLA WALLA 5E N/A         63  37  38  W8      N/A
#WHITMAN MISSIONN/A         66  42  42  W1      29.74F
$$

WAZ030-250310-
BLUE MOUNTAINS...WASHINGTON

CITY            SKY/WX      TMP DP  RH  WIND    PRES   REMARKS
#DIXIE 5SE      N/A         54  33  45  SW9     29.72S
$$

ORZ009-041-WAZ024-250310-
COLUMBIA RIVER GORGE

CITY            SKY/WX      TMP DP  RH  WIND    PRES   REMARKS
HOOD RIVER AP   CLOUDY      59  41  51  CALM    29.88F
THE DALLES AP   PTCLDY      65  41  41  W23G32  29.83F
#ARLINGTON AIRPON/A         61  42  50  W18     29.77S
#CELILO DOT     N/A         65  42  43  SW12    N/A
#LYLE           N/A         61  45  56  W14G33  29.85S
#MARYHILL       N/A         62  39  43  N18G28  N/A
#MURDOCK        N/A         62  45  54  NW17G26 29.79F
#RUFUS DOT      N/A         65  43  45  W21     N/A
#SMITHVILLE     N/A         63  43  48  N14     29.77F

$$

ORZ510-250310-
NORTH CENTRAL OREGON

CITY            SKY/WX      TMP DP  RH  WIND    PRES   REMARKS
#ANTELOPE       N/A         55  36  49  W3      29.66R
#CHENOWITH 1W   N/A         51  35  54  NW14    N/A
#COW CYN RST AREN/A         55  33  43  SW13    N/A
#DUFUR          N/A         59  39  47  W7      29.79S
#DUFUR 9E       N/A         53  39  59  NW23G37 29.88F
#GRASS VALLEY 1SN/A         55  38  53  NW17G25 29.87S
#KENT DOT       N/A         54  32  43  NW22    N/A
#MAUPIN SCHOOL  N/A         62  39  43  N6      29.87F
#MORO SCHOOL    N/A         56  43  62  W17     29.93R
#SHANIKO 5WSW   N/A         54  29  38  N12     N/A
#SHANIKO 4NW    N/A         51  33  50  N17G26  29.85S
#TYGH VALLEY 2NEN/A         61  39  44  N9      29.80S
#WAPANITIA AIRPON/A         58  39  49  NW10    29.83S
#WASCO DOT      N/A         60  40  47  W16     N/A
#WASCO 5NE      N/A         57  42  57  W15G28  29.78F
$$

ORZ511-250310-
CENTRAL OREGON

CITY            SKY/WX      TMP DP  RH  WIND    PRES   REMARKS
BEND AIRPORT    SUNNY       57  30  35  N14     29.79R
MADRAS AIRPORT  SUNNY       54  32  43  NW22G30 29.88S
PRINEVILLE AP   SUNNY       55  32  41  MISG    29.84S
REDMOND AIRPORT SUNNY       57  29  34  N21G25  29.83S
#ASHWOOD SCHOOL N/A         57  35  43  NW8     29.82S
#BEND 1SW       N/A         58  31  36  E2      N/A
#BEND-AWBREY    N/A         63  34  34  CALM    29.72S
#BEND-KIM LN    N/A         60  35  39  N10     29.67F
#CULVER         N/A         55  35  47  N12     29.70R
#CULVER 8W      N/A         59  30  33  N5      29.86R
#MADRAS 4S      N/A         55  12  18  N13     29.96
#POWELL BUTTE   N/A         56  33  42  N14     29.83R
#PRINEVILLE     N/A         58  33  39  NW5     29.82S
#PRINEVILLE 3N  N/A         54  37  52  NW12    29.76R

$$


ORZ509-250310-
EAST SLOPES OF OREGON CASCADES

CITY            SKY/WX      TMP DP  RH  WIND    PRES   REMARKS
SISTERS AWOS    N/A         57  34  42  W21G36  29.84S
#CAMP SHERMAN   N/A         55  33  43  N5      29.91R
#LA PINE 4SW    N/A         61  27  27  W2      29.85S
#LA PINE 4NW    N/A         58  33  39  NE5     29.73R
#LAVA BUTTE DOT N/A         58  25  28  N2      N/A
#SISTERS 3N     N/A         56  28  34  NW6     29.85S
#SUNRIVER       N/A         59  31  34  N2      29.70R
#TUMALO 3W      N/A         57  32  38  NW12    29.62S
#WANOGA BUTTE D N/A         50  23  34  NW8     N/A

$$

ORZ044-250310-
LOWER COLUMBIA BASIN...OREGON

CITY            SKY/WX      TMP DP  RH  WIND    PRES   REMARKS
HERMISTON       MOCLDY      66  40  38  W14     29.76S
#BOARDMAN SCHOOLN/A         66  42  42  SW10    29.74F
#BOARDMAN 8SW   N/A         64  43  46  W18G25  29.75S
#ECHO 8SW       N/A         65  39  38  W8      29.78S
#I-84 EX 198 DOTN/A         65  42  43  E17     N/A
#IONE SCHOOL    N/A         62  39  43  SW16G25 29.77F
#UMATILLA       N/A         67  41  39  SW8     29.67S
$$

ORZ507-250310-
NORTHERN FOOTHILLS OF THE BLUES

CITY            SKY/WX      TMP DP  RH  WIND    PRES   REMARKS
PENDLETON AIRPT PTCLDY      61  39  44  W17     29.77S
#ADAMS 3WNW     N/A         61  40  46  W7      29.73F
#ATHENA         N/A         61  36  39  W3      29.76S
#CAYUSE         N/A         61  37  41  W5      29.72S
#HELIX SCHOOL   N/A         62  35  36  N1      29.73S
#HELIX 3N       N/A         61  34  36  W9      29.76S
#HOLDMAN 5SE    N/A         62  39  43  W14     29.77S
#HOLDMAN 6E     N/A         62  39  43  SW12    29.54S
#M-F FERNDALE   N/A         68  37  32  CALM    29.73F
#M-F GROVE ELEM N/A         66  29  25  CALM    29.75S
#M-FREEWATER 5SEN/A         63  40  43  CALM    29.77S
#PENDLETON DNTN N/A         67  35  30  SW3     29.78S
#PDT AQUATIC CTRN/A         65  36  34  W10     29.79F
#PDT SUNRIDGE   N/A         64  39  40  W6      29.78S
#PENDLETON 7NW  N/A         63  42  46  W13     26.20S
#PILOT ROCK 1S  N/A         62  34  35  W7      29.79F
#PILOT ROCK     N/A         63  36  36  CALM    29.81S
#TUTUILLA       N/A         63  41  44  W1      29.75S
#UMAPINE 2E     N/A         66  42  42  CALM    29.72S
#WESTON SCHOOL  N/A         60  30  32  N2      29.71S

$$

ORZ508-250310-
SOUTHERN FOOTHILLS OF THE BLUES

CITY            SKY/WX      TMP DP  RH  WIND    PRES   REMARKS
LEXINGTON       PTCLDY      61  36  39  W20     29.83S
#AJAX           N/A         56  32  40  SW13G25 29.99S
#CONDON 5W      N/A         52  34  50  NW20G26 29.82F
#FOSSIL SCHOOL  N/A         56  34  43  NW10    29.79S
#HEPPNER EOC    N/A         59  35  40  W14     29.70S
#HEPPNER 4NE    N/A         56  36  47  W15G24  29.75S
#LEXINGTON 2SE  N/A         62  39  43  NW16    29.76S
#MIKKALO        N/A         58  36  44  W15G25  29.93S
#OLEX 4N        N/A         60  40  47  W25G33  29.79F
#RUGGS 5NE      N/A         57  34  42  W15     30.01S
#RUGGS 2SW      N/A         57  36  45  W9      29.77S

$$

ORZ502-503-250310-
BLUE MOUNTAINS

CITY            SKY/WX      TMP DP  RH  WIND    PRES   REMARKS
MEACHAM         PTCLDY      52  19  27  VRB5    29.81S
#BATTLE MTN DOT N/A         51  29  42  NW2     N/A
#GREENHORN 9SW  N/A         55  29  37  W7      29.81F
#HARDMAN 10S    N/A         51  33  50  W1      29.84S
#LADD CYN SMT   N/A         54  30  40  NW16    N/A
#LADD CREEK ODOTN/A         56  32  40  NE6     N/A
#LONG CREEK HS  N/A         54  33  45  CALM    N/A
#N POWDER DOT   N/A         57  34  42  N16     N/A
#PIKES PEAK     N/A         52  31  44  N8      27.99S
#SUMMERVILLE 5NWN/A         54  31  41  NW6     29.82R
#TOLLGATE       N/A         44  28  53  E3      29.70S
#TROY SCHOOL    N/A         64  34  33  CALM    29.54S
#UKIAH          N/A         54  35  48  NW9     29.65R
#WESTON 4E      N/A         53  32  45  SW3     29.70S
$$

ORZ505-250310-
JOHN DAY BASIN

CITY            SKY/WX      TMP DP  RH  WIND    PRES   REMARKS
JOHN DAY        SUNNY       59  27  29  N17     29.79S
#ANTELOPE 9ESE  N/A         62  35  36  N7      N/A
#DAYVILLE SCHOOLN/A         63  25  23  N9      29.76S
#MITCHELL       N/A         58  37  45  N2      29.99R
#MITCHELL 8NW   N/A         55  32  41  E2      29.75R
#MONUMENT HS    N/A         65  28  25  E7      29.75S
#MT. VERNON 5SE N/A         56  27  33  N3      29.74R
#SPRAY SCHOOL   N/A         64  N/A N/A CALM    N/A
$$

ORZ506-250310-
OCHOCO AND JOHN DAY HIGHLANDS

CITY            SKY/WX      TMP DP  RH  WIND    PRES   REMARKS
#HORSE RIDGE DO N/A         56  25  30  NW18    N/A
#IZEE 6NW       N/A         59  26  28  S8      N/A
#PAULINA ODOT   N/A         60  27  28  N9      N/A
#PINE MTN OBS   N/A         46  27  47  N9      N/A
#PRAIRIE CITY   N/A         60  22  23  NW1     29.91S
#SENECA         N/A         57  N/A N/A N8      N/A
#SENECA 9NW     N/A         51  24  34  SW1     29.64R
$$

ORZ049-250310-
GRANDE RONDE VALLEY

CITY            SKY/WX      TMP DP  RH  WIND    PRES   REMARKS
LA GRANDE       SUNNY       57  28  33  N17     29.78R
#COVE           N/A         57  36  45  NW6     29.83R
#COVE SCHOOL    N/A         56  33  42  N2      29.82R
#COVE 6NW       N/A         59  33  37  NW9     29.70R
#ELGIN 3N       N/A         56  26  31  W1      29.78S
#ELGIN 1E       N/A         58  30  34  W2      N/A
#IMBLER SCHOOL  N/A         55  29  37  CALM    29.77R
#ISLAND CITY 4N N/A         59  46  62  W1      29.96F
#LA GRANDE-LEFFEN/A         57  31  37  W3      29.80S
#UNION 1S       N/A         59  31  34  NW12    29.70R
$$

ORZ050-250310-
WALLOWA COUNTY

CITY            SKY/WX      TMP DP  RH  WIND    PRES   REMARKS
JOSEPH AIRPORT  PTCLDY      50  25  37  N14     29.79R
#ENTERPRISE HS  N/A         54  31  41  NW7     29.54R
#IMNAHA SCHOOL  N/A         62  29  28  N1      29.74R
#JOSEPH         N/A         52  28  39  N8      29.79R
#JOSEPH 3N      N/A         52  22  31  N14G26  29.83R
#JOSEPH 3W      N/A         46  32  58  SE1     29.66R
#LOSTINE        N/A         54  29  38  N3      29.48R
#LOSTINE 3SE    N/A         52  27  38  N8      29.81R
#MT HOWARD 8000 N/A         31  24  75  NW8     29.81R
#PROMISE 1S     N/A         51  31  46  W10     29.84F
#WALLOWA LAKE   N/A         49  29  46  NE6     29.80R
#WALLOWA SCHOOL N/A         57  30  35  NW2     29.76R



$$



USA.gov is the U.S. government's official web portal to all federal, state and local government web resources and services.